EW5937 Weather Reports


Display with metric or nautical units.
time (UTC)temp
F
wind
direction
speed
MPH
gust
MPH
rain 1hr
in
rain 24hr
in
rain mn
in
humidity
%
barometer
mb
20260906222833 91 328 0.0 2.0 0.00 0.00 0.00 30 1001.7
20260906221833 91 316 0.0 3.0 0.00 0.00 0.00 30 1001.7
20260906220833 92 337 0.0 5.0 0.00 0.00 0.00 29 1001.9
20260906215833 92 6 0.0 4.0 0.00 0.00 0.00 29 1002.1
20260906214833 91 49 0.0 5.0 0.00 0.00 0.00 30 1002.2
20260906213833 91 38 0.0 4.0 0.00 0.00 0.00 29 1002.2
20260906212833 91 132 0.0 4.0 0.00 0.00 0.00 29 1002.5
20260906211833 91 47 0.0 4.0 0.00 0.00 0.00 30 1002.6
20260906210833 90 211 0.0 4.0 0.00 0.00 0.00 31 1002.8
20260906205833 91 62 0.0 3.0 0.00 0.00 0.00 32 1003.1
20260906204833 91 53 0.0 1.0 0.00 0.00 0.00 31 1003.1
20260906203834 90 114 0.0 3.0 0.00 0.00 0.00 32 1003.3
20260906202833 89 297 0.0 2.0 0.00 0.00 0.00 32 1003.4
20260906201833 89 234 0.0 4.0 0.00 0.00 0.00 32 1003.5
20260906200833 88 79 0.0 1.0 0.00 0.00 0.00 32 1003.5
20260906195833 88 33 0.0 4.0 0.00 0.00 0.00 34 1003.6
20260906194833 87 86 0.0 4.0 0.00 0.00 0.00 37 1003.8
20260906193833 86 26 0.0 4.0 0.00 0.00 0.00 38 1003.8
20260906192833 86 60 0.0 5.0 0.00 0.00 0.00 39 1003.9
20260906191833 85 6 0.0 4.0 0.00 0.00 0.00 38 1004.1
20260906190833 85 44 0.0 4.0 0.00 0.00 0.00 41 1004.3
20260906185833 84 58 0.0 5.0 0.00 0.00 0.00 41 1004.5
20260906184833 84 72 0.0 4.0 0.00 0.00 0.00 40 1004.8
20260906183833 83 56 1.0 1.0 0.00 0.00 0.00 42 1005.1
20260906182833 83 63 0.0 3.0 0.00 0.00 0.00 40 1005.2
20260906181833 83 33 0.0 4.0 0.00 0.00 0.00 42 1005.4
20260906180833 82 94 0.0 1.0 0.00 0.00 0.00 44 1005.4
20260906175834 82 33 0.0 4.0 0.00 0.00 0.00 43 1005.7
20260906174833 80 113 0.0 1.0 0.00 0.00 0.00 44 1005.9
20260906173833 80 98 0.0 0.0 0.00 0.00 0.00 45 1006.3
20260906172833 79 114 0.0 2.0 0.00 0.00 0.00 47 1006.5
20260906161002 73 35 0.0 2.0 0.00 0.00 0.00 61 1007.0
20260906160002 73 339 0.0 4.0 0.00 0.00 0.00 62 1006.9
20260906155002 72 5 0.0 0.0 0.00 0.00 0.00 66 1007.0
20260906154002 71 17 1.0 3.0 0.00 0.00 0.00 67 1007.1
20260906153002 70 333 0.0 2.0 0.00 0.00 0.00 68 1007.1
20260906152002 70 1 0.0 0.0 0.00 0.00 0.00 68 1007.0
20260906151003 69 346 0.0 0.0 0.00 0.00 0.00 71 1007.2
20260906150002 68 348 0.0 1.0 0.00 0.00 0.00 71 1007.3
20260906145002 68 340 0.0 2.0 0.00 0.00 0.00 73 1007.1
20260906144002 67 342 0.0 2.0 0.00 0.00 0.00 74 1007.0
20260906143002 67 324 0.0 0.0 0.00 0.00 0.00 74 1007.3
20260906142002 66 323 0.0 0.0 0.00 0.00 0.00 74 1007.2
20260906141002 66 304 0.0 0.0 0.00 0.00 0.00 75 1007.2
20260906140002 65 311 0.0 1.0 0.00 0.00 0.00 76 1007.0
20260906135002 64 305 0.0 0.0 0.00 0.00 0.00 77 1007.0
20260906134002 63 68 0.0 0.0 0.00 0.00 0.00 78 1007.0
20260906133002 65 257 0.0 0.0 0.00 0.00 0.00 57 1007.2
20260906132002 65 257 0.0 0.0 0.00 0.00 0.00 57 1007.0
20260906131002 65 257 0.0 0.0 0.00 0.00 0.00 57 1006.9
20260906130002 65 257 0.0 0.0 0.00 0.00 0.00 57 1007.0
20260906125002 65 257 0.0 0.0 0.00 0.00 0.00 57 1006.8
20260906124002 65 257 0.0 0.0 0.00 0.00 0.00 57 1006.8
20260906123002 65 257 0.0 0.0 0.00 0.00 0.00 57 1006.8
20260906122002 65 257 0.0 0.0 0.00 0.00 0.00 57 1006.7
20260906121002 65 257 0.0 0.0 0.00 0.00 0.00 57 1006.6
20260906120002 65 257 0.0 0.0 0.00 0.00 0.00 57 1006.8
20260906115002 65 257 0.0 0.0 0.00 0.00 0.00 57 1006.7
20260906114002 65 108 0.0 0.0 0.00 0.00 0.00 57 1006.6
20260906113002 65 108 0.0 0.0 0.00 0.00 0.00 57 1006.7
20260906112002 65 108 0.0 0.0 0.00 0.00 0.00 57 1006.6
20260906111002 65 108 0.0 0.0 0.00 0.00 0.00 57 1006.4
20260906110002 65 108 0.0 0.0 0.00 0.00 0.00 57 1006.4
20260906105003 65 108 0.0 0.0 0.00 0.00 0.00 57 1006.5
20260906104002 65 108 0.0 0.0 0.00 0.00 0.00 57 1006.6
20260906103002 65 108 0.0 0.0 0.00 0.00 0.00 57 1006.3
20260906102002 65 108 0.0 0.0 0.00 0.00 0.00 57 1006.6
20260906101002 65 108 0.0 0.0 0.00 0.00 0.00 57 1006.5
20260906100002 65 108 0.0 0.0 0.00 0.00 0.00 57 1006.5
20260906095002 65 108 0.0 0.0 0.00 0.00 0.00 57 1006.5
20260906094002 65 108 0.0 0.0 0.00 0.00 0.00 57 1006.7
20260906093003 65 108 0.0 0.0 0.00 0.00 0.00 57 1006.7
20260906092002 65 108 0.0 0.0 0.00 0.00 0.00 57 1006.4
20260906091003 65 108 0.0 0.0 0.00 0.00 0.00 57 1006.3
20260906090002 67 108 0.0 0.0 0.00 0.00 0.00 56 1006.3
20260906085002 68 108 0.0 0.0 0.00 0.00 0.00 53 1006.1
20260906084002 68 109 0.0 1.0 0.00 0.00 0.00 51 1005.9
20260906083002 68 110 0.0 0.0 0.00 0.00 0.00 50 1005.9
20260906082002 69 110 0.0 0.0 0.00 0.00 0.00 49 1005.9
20260906081002 69 110 0.0 0.0 0.00 0.00 0.00 48 1005.5
20260906080002 68 110 0.0 0.0 0.00 0.00 0.00 50 1005.5
20260906075002 68 110 0.0 0.0 0.00 0.00 0.00 52 1005.5
20260906074002 68 110 0.0 0.0 0.00 0.00 0.00 52 1005.5
20260906073002 68 110 0.0 0.0 0.00 0.00 0.00 51 1005.6
20260906072002 69 110 0.0 0.0 0.00 0.00 0.00 51 1005.6
20260906071002 69 110 0.0 0.0 0.00 0.00 0.00 50 1005.6
20260906070002 70 110 0.0 0.0 0.00 0.00 0.00 49 1005.5
20260906065002 71 110 0.0 0.0 0.00 0.00 0.00 47 1005.6
20260906064002 72 110 0.0 0.0 0.00 0.00 0.00 46 1005.7
20260906063002 72 110 0.0 0.0 0.00 0.00 0.00 46 1005.9
20260906062002 73 110 0.0 0.0 0.00 0.00 0.00 45 1005.7
20260906061002 73 110 0.0 0.0 0.00 0.00 0.00 45 1005.8
20260906060002 74 110 0.0 0.0 0.00 0.00 0.00 45 1005.8
20260906055003 74 110 0.0 1.0 0.00 0.00 0.00 44 1005.2
20260906054002 74 119 0.0 0.0 0.00 0.00 0.00 46 1005.4
20260906053002 75 172 0.0 0.0 0.00 0.00 0.00 40 1006.1
20260906052003 74 98 0.0 1.0 0.00 0.00 0.00 40 1006.4
20260906051003 74 110 0.0 0.0 0.00 0.00 0.00 40 1006.6
20260906050003 74 117 0.0 0.0 0.00 0.00 0.00 42 1006.5
20260906045002 74 313 0.0 0.0 0.00 0.00 0.00 44 1006.0
20260906044002 74 313 0.0 0.0 0.00 0.00 0.00 42 1005.8
20260906043002 74 314 0.0 0.0 0.00 0.00 0.00 41 1005.5
20260906042003 74 314 0.0 0.0 0.00 0.00 0.00 43 1005.6
20260906041003 74 312 0.0 0.0 0.00 0.00 0.00 41 1005.5
20260906040002 74 312 0.0 0.0 0.00 0.00 0.00 41 1005.2
20260906035003 75 312 0.0 0.0 0.00 0.00 0.00 40 1005.1
20260906034002 75 312 0.0 0.0 0.00 0.00 0.00 39 1004.8
20260906033002 76 312 0.0 0.0 0.00 0.00 0.00 37 1004.7
20260906032002 76 314 0.0 0.0 0.00 0.00 0.00 36 1004.8
20260906031002 76 314 0.0 0.0 0.00 0.00 0.00 37 1004.5
20260906030003 77 312 0.0 0.0 0.00 0.00 0.00 36 1004.1
20260906025002 77 312 0.0 0.0 0.00 0.00 0.00 35 1003.7
20260906024002 78 312 0.0 0.0 0.00 0.00 0.00 34 1003.6
20260906023003 78 312 0.0 0.0 0.00 0.00 0.00 33 1003.6
20260906022002 79 312 0.0 0.0 0.00 0.00 0.00 32 1003.5
20260906021003 80 312 0.0 0.0 0.00 0.00 0.00 31 1003.5
20260906020002 80 312 0.0 1.0 0.00 0.00 0.00 30 1003.5
20260906015002 80 275 0.0 0.0 0.00 0.00 0.00 30 1003.5
20260906014002 81 275 0.0 0.0 0.00 0.00 0.00 30 1003.4
20260906013003 82 273 0.0 1.0 0.00 0.00 0.00 29 1003.1
20260906012002 82 292 0.0 1.0 0.00 0.00 0.00 29 1003.1
20260906011003 83 38 0.0 0.0 0.00 0.00 0.00 28 1003.1
20260906010002 84 312 0.0 1.0 0.00 0.00 0.00 28 1003.0
20260906005002 85 195 0.0 2.0 0.00 0.00 0.00 27 1003.1
20260906004003 86 32 0.0 5.0 0.00 0.00 0.00 26 1003.1
20260906003002 87 338 0.0 4.0 0.00 0.00 0.00 24 1003.1
20260906002002 87 321 0.0 2.0 0.00 0.00 0.00 23 1003.0
20260906001003 87 333 0.0 4.0 0.00 0.00 0.00 23 1003.0
20260906000002 88 330 0.0 3.0 0.00 0.00 0.00 22 1002.9
20260905235003 88 335 0.0 1.0 0.00 0.00 0.00 23 1002.9
20260905234002 88 333 0.0 3.0 0.00 0.00 0.00 22 1002.9
20260905233002 89 348 0.0 1.0 0.00 0.00 0.00 22 1002.8
20260905232002 90 349 0.0 1.0 0.00 0.00 0.00 21 1002.7
20260905231002 91 292 0.0 2.0 0.00 0.00 0.00 21 1002.6
20260905230002 91 14 0.0 2.0 0.00 0.00 0.00 21 1002.6
20260905225002 90 86 0.0 1.0 0.00 0.00 0.00 21 1002.5
20260905224002 91 87 0.0 2.0 0.00 0.00 0.00 21 1002.5